RYR982M LIME-LIBD

Flight info

Callsign RYR982M
Flight time 1h 16m
Altitude 33000
Route LOGDI DCT LOMED DCT NUKNI DCT AMSOR DCT EKTOL DCT DOGUS
Aircraft B738/M-SDE2E3FGHIRWXY/LB1

Departure

Time 2026-04-22 19:03
Airport Il Caravaggio International Airport (LIME)

Arrival

Time 2026-04-22 20:20
Airport Bari Karol Wojtyła International Airport (LIBD)
Time Latitude Longitude Altitude Speed Heading
2026-04-22 18:38 45.66593 9.70394 780 ft 0 kts 194°
2026-04-22 18:55 45.66595 9.70395 780 ft 2 kts 195°
2026-04-22 18:55 45.66611 9.70401 779 ft 2 kts 195°
2026-04-22 18:55 45.66627 9.70407 779 ft 2 kts 195°
2026-04-22 18:56 45.66643 9.70413 779 ft 2 kts 183°
2026-04-22 18:56 45.66659 9.70408 779 ft 2 kts 119°
2026-04-22 18:56 45.66662 9.70398 779 ft 1 kts 102°
2026-04-22 18:56 45.66662 9.70397 779 ft 0 kts 102°
2026-04-22 18:58 45.66662 9.70398 779 ft 0 kts 102°
2026-04-22 18:58 45.66660 9.70430 770 ft 8 kts 93°
2026-04-22 18:59 45.66644 9.70544 778 ft 16 kts 104°
2026-04-22 18:59 45.66612 9.70720 776 ft 19 kts 104°
2026-04-22 18:59 45.66578 9.70901 775 ft 18 kts 105°
2026-04-22 18:59 45.66544 9.71074 773 ft 18 kts 108°
2026-04-22 19:00 45.66501 9.71237 772 ft 17 kts 106°
2026-04-22 19:00 45.66470 9.71399 771 ft 17 kts 105°
2026-04-22 19:00 45.66442 9.71553 769 ft 16 kts 101°
2026-04-22 19:00 45.66458 9.71706 768 ft 16 kts 75°
2026-04-22 19:01 45.66473 9.71868 766 ft 17 kts 99°
2026-04-22 19:01 45.66443 9.72034 764 ft 17 kts 105°
2026-04-22 19:01 45.66413 9.72194 763 ft 16 kts 105°
2026-04-22 19:01 45.66385 9.72348 762 ft 16 kts 104°
2026-04-22 19:02 45.66386 9.72466 762 ft 8 kts 40°
2026-04-22 19:02 45.66436 9.72451 761 ft 8 kts 334°
2026-04-22 19:02 45.66469 9.72398 762 ft 7 kts 287°
2026-04-22 19:02 45.66488 9.72282 763 ft 19 kts 284°
2026-04-22 19:03 45.66556 9.71923 766 ft 75 kts 285°
2026-04-22 19:03 45.66762 9.70806 776 ft 156 kts 284°
2026-04-22 19:03 45.67071 9.69082 1310 ft 190 kts 283°
2026-04-22 19:03 45.67137 9.67166 2075 ft 214 kts 254°
2026-04-22 19:04 45.66362 9.65190 2769 ft 228 kts 224°
2026-04-22 19:04 45.65160 9.63715 3724 ft 223 kts 219°
2026-04-22 19:04 45.64025 9.62237 4584 ft 224 kts 224°
2026-04-22 19:04 45.62861 9.60608 4867 ft 249 kts 225°
2026-04-22 19:05 45.61599 9.58807 5456 ft 260 kts 225°
2026-04-22 19:05 45.60308 9.56965 6370 ft 262 kts 226°
2026-04-22 19:05 45.59014 9.55118 7204 ft 269 kts 226°
2026-04-22 19:05 45.57633 9.53171 7860 ft 281 kts 221°
2026-04-22 19:06 45.55891 9.51871 8627 ft 289 kts 192°
2026-04-22 19:06 45.53906 9.51920 9495 ft 291 kts 163°
2026-04-22 19:06 45.51990 9.52924 10338 ft 293 kts 155°
2026-04-22 19:07 45.48030 9.55395 11196 ft 330 kts 155°
2026-04-22 19:07 45.45909 9.56714 11930 ft 336 kts 155°
2026-04-22 19:07 45.43747 9.58038 12759 ft 339 kts 156°
2026-04-22 19:07 45.41542 9.59371 13554 ft 344 kts 156°
2026-04-22 19:08 45.39326 9.60704 14291 ft 349 kts 156°
2026-04-22 19:08 45.37088 9.62050 14992 ft 353 kts 155°
2026-04-22 19:08 45.34883 9.63689 15705 ft 356 kts 147°
2026-04-22 19:08 45.32801 9.65587 16416 ft 360 kts 144°
2026-04-22 19:09 45.30756 9.67559 17102 ft 364 kts 144°
2026-04-22 19:09 45.28577 9.69668 17823 ft 369 kts 144°
2026-04-22 19:09 45.27155 9.71029 18289 ft 372 kts 144°
2026-04-22 19:09 45.24213 9.73806 19070 ft 379 kts 145°
2026-04-22 19:10 45.21962 9.75902 19620 ft 385 kts 145°
2026-04-22 19:10 45.19695 9.77997 20169 ft 390 kts 146°
2026-04-22 19:10 45.17420 9.80092 20708 ft 396 kts 146°
2026-04-22 19:10 45.15075 9.82247 21235 ft 402 kts 146°
2026-04-22 19:11 45.12729 9.84400 21748 ft 407 kts 146°
2026-04-22 19:11 45.10303 9.86624 22249 ft 413 kts 147°
2026-04-22 19:11 45.07887 9.88837 22760 ft 419 kts 147°
2026-04-22 19:11 45.05415 9.91101 23258 ft 424 kts 147°
2026-04-22 19:12 45.02945 9.93360 23734 ft 430 kts 147°
2026-04-22 19:12 45.00394 9.95689 24130 ft 435 kts 148°
2026-04-22 19:12 44.97804 9.97953 24521 ft 440 kts 150°
2026-04-22 19:12 44.95156 10.00136 24917 ft 445 kts 151°
2026-04-22 19:13 44.92474 10.02302 25316 ft 450 kts 152°
2026-04-22 19:13 44.89726 10.04520 25732 ft 455 kts 152°
2026-04-22 19:13 44.86975 10.06755 26110 ft 460 kts 152°
2026-04-22 19:13 44.84195 10.09028 26483 ft 464 kts 152°
2026-04-22 19:14 44.81364 10.11350 26848 ft 469 kts 152°
2026-04-22 19:14 44.78529 10.13678 27218 ft 474 kts 152°
2026-04-22 19:14 44.75700 10.15999 27565 ft 478 kts 152°
2026-04-22 19:14 44.73775 10.17574 27792 ft 481 kts 153°
2026-04-22 19:15 44.70935 10.19950 28142 ft 487 kts 148°
2026-04-22 19:15 44.67338 10.23841 28590 ft 495 kts 141°
2026-04-22 19:15 44.65583 10.25955 28799 ft 498 kts 140°
2026-04-22 19:15 44.62138 10.30235 29274 ft 502 kts 140°
2026-04-22 19:16 44.60396 10.32405 29521 ft 504 kts 140°
2026-04-22 19:16 44.57748 10.35664 29963 ft 505 kts 141°
2026-04-22 19:16 44.55099 10.38874 30385 ft 506 kts 141°
2026-04-22 19:16 44.52450 10.42041 30822 ft 505 kts 141°
2026-04-22 19:17 44.49800 10.45184 31376 ft 500 kts 142°
2026-04-22 19:17 44.47055 10.48426 31948 ft 496 kts 142°
2026-04-22 19:17 44.44441 10.51505 32477 ft 492 kts 142°
2026-04-22 19:17 44.41803 10.54612 33040 ft 487 kts 141°
2026-04-22 19:18 44.39272 10.57590 33208 ft 492 kts 141°
2026-04-22 19:18 44.34000 10.63785 33191 ft 494 kts 141°
2026-04-22 19:19 44.28778 10.69914 33174 ft 486 kts 142°
2026-04-22 19:19 44.23497 10.76096 33187 ft 489 kts 142°
2026-04-22 19:20 44.18248 10.82224 33202 ft 491 kts 142°
2026-04-22 19:20 44.13003 10.88335 33168 ft 493 kts 142°
2026-04-22 19:21 44.07740 10.94455 33180 ft 493 kts 142°
2026-04-22 19:21 44.02736 11.00977 33175 ft 494 kts 129°
2026-04-22 19:21 44.00728 11.04839 33165 ft 492 kts 118°
2026-04-22 19:22 43.99066 11.08956 33169 ft 490 kts 116°
2026-04-22 19:22 43.95841 11.17289 33174 ft 488 kts 116°
2026-04-22 19:23 43.92605 11.25501 33163 ft 487 kts 117°
2026-04-22 19:23 43.89311 11.33693 33166 ft 487 kts 117°
2026-04-22 19:24 43.85980 11.41929 33150 ft 488 kts 118°
2026-04-22 19:24 43.82680 11.50082 33170 ft 488 kts 118°
2026-04-22 19:25 43.78895 11.57880 33172 ft 489 kts 134°
2026-04-22 19:25 43.74018 11.64434 33181 ft 489 kts 139°
2026-04-22 19:26 43.69020 11.70876 33184 ft 490 kts 139°
2026-04-22 19:26 43.63979 11.77439 33179 ft 490 kts 139°
2026-04-22 19:27 43.59015 11.83963 33192 ft 491 kts 139°
2026-04-22 19:27 43.54121 11.90405 33183 ft 491 kts 139°
2026-04-22 19:28 43.49172 11.96905 33184 ft 491 kts 139°
2026-04-22 19:28 43.44276 12.03312 33189 ft 491 kts 139°
2026-04-22 19:29 43.39236 12.09893 33174 ft 491 kts 139°
2026-04-22 19:29 43.34265 12.16367 33167 ft 490 kts 139°
2026-04-22 19:30 43.30983 12.20632 33172 ft 489 kts 139°
2026-04-22 19:30 43.25300 12.28003 33170 ft 489 kts 139°
2026-04-22 19:31 43.20335 12.34426 33176 ft 489 kts 139°
2026-04-22 19:31 43.15388 12.40813 33156 ft 488 kts 139°
2026-04-22 19:32 43.10475 12.47139 33159 ft 488 kts 140°
2026-04-22 19:32 43.05500 12.53530 33154 ft 488 kts 140°
2026-04-22 19:33 43.00534 12.59896 33162 ft 489 kts 140°
2026-04-22 19:33 42.95544 12.66276 33164 ft 489 kts 140°
2026-04-22 19:34 42.90590 12.72596 33160 ft 490 kts 140°
2026-04-22 19:34 42.85583 12.78970 33174 ft 491 kts 140°
2026-04-22 19:35 42.80608 12.85288 33166 ft 491 kts 140°
2026-04-22 19:35 42.75592 12.91643 33157 ft 491 kts 140°
2026-04-22 19:36 42.70598 12.97957 33162 ft 490 kts 140°
2026-04-22 19:36 42.65603 13.04256 33161 ft 490 kts 140°
2026-04-22 19:37 42.60626 13.10519 33159 ft 490 kts 140°
2026-04-22 19:37 42.55644 13.16774 33155 ft 488 kts 140°
2026-04-22 19:38 42.50646 13.23034 33158 ft 487 kts 140°
2026-04-22 19:38 42.45683 13.29235 33176 ft 486 kts 140°
2026-04-22 19:39 42.40725 13.35417 33168 ft 485 kts 140°
2026-04-22 19:39 42.35753 13.41603 33167 ft 485 kts 140°
2026-04-22 19:40 42.30780 13.47776 33172 ft 485 kts 141°
2026-04-22 19:40 42.25772 13.53978 33171 ft 485 kts 141°
2026-04-22 19:41 42.20796 13.60126 33173 ft 485 kts 141°
2026-04-22 19:41 42.15813 13.66270 33175 ft 486 kts 141°
2026-04-22 19:42 42.10825 13.72406 33164 ft 486 kts 141°
2026-04-22 19:42 42.05801 13.78573 33165 ft 486 kts 141°
2026-04-22 19:43 41.98328 13.87721 33151 ft 486 kts 141°
2026-04-22 19:43 41.93290 13.93871 33155 ft 485 kts 141°
2026-04-22 19:44 41.88322 13.99922 33155 ft 484 kts 141°
2026-04-22 19:44 41.83305 14.06019 33159 ft 484 kts 140°
2026-04-22 19:45 41.78357 14.12019 33154 ft 483 kts 140°
2026-04-22 19:45 41.73332 14.18099 33147 ft 484 kts 140°
2026-04-22 19:46 41.68313 14.24157 33149 ft 485 kts 140°
2026-04-22 19:46 41.63328 14.30162 33123 ft 486 kts 140°
2026-04-22 19:47 41.58300 14.36208 33133 ft 486 kts 140°
2026-04-22 19:47 41.53265 14.42247 33128 ft 486 kts 140°
2026-04-22 19:48 41.48212 14.48295 33124 ft 486 kts 140°
2026-04-22 19:48 41.43181 14.54303 33128 ft 485 kts 141°
2026-04-22 19:49 41.38161 14.60285 33119 ft 486 kts 141°
2026-04-22 19:49 41.33134 14.66263 33115 ft 484 kts 141°
2026-04-22 19:50 41.28154 14.72176 33114 ft 475 kts 141°
2026-04-22 19:50 41.23250 14.77983 33128 ft 472 kts 141°
2026-04-22 19:51 41.18402 14.83888 33095 ft 469 kts 133°
2026-04-22 19:51 41.16525 14.87290 33119 ft 456 kts 120°
2026-04-22 19:51 41.15129 14.91024 33098 ft 442 kts 109°
2026-04-22 19:52 41.14287 14.94876 33128 ft 425 kts 98°
2026-04-22 19:52 41.13703 14.98698 32584 ft 429 kts 98°
2026-04-22 19:52 41.13110 15.02676 31434 ft 450 kts 98°
2026-04-22 19:52 41.12469 15.06847 30581 ft 464 kts 99°
2026-04-22 19:53 41.11803 15.10995 30235 ft 461 kts 99°
2026-04-22 19:53 41.11121 15.15160 29774 ft 460 kts 99°
2026-04-22 19:53 41.10447 15.19259 29393 ft 456 kts 100°
2026-04-22 19:53 41.09775 15.23357 29027 ft 452 kts 100°
2026-04-22 19:54 41.09108 15.27425 28656 ft 449 kts 100°
2026-04-22 19:54 41.08454 15.31408 28288 ft 445 kts 100°
2026-04-22 19:54 41.07793 15.35433 27939 ft 442 kts 100°
2026-04-22 19:54 41.07142 15.39382 27575 ft 439 kts 100°
2026-04-22 19:55 41.06496 15.43299 27216 ft 437 kts 100°
2026-04-22 19:55 41.05847 15.47223 26858 ft 434 kts 101°
2026-04-22 19:55 41.05199 15.51129 26499 ft 431 kts 101°
2026-04-22 19:55 41.04562 15.54963 26155 ft 428 kts 101°
2026-04-22 19:56 41.03918 15.58830 25826 ft 426 kts 101°
2026-04-22 19:56 41.03279 15.62663 25467 ft 425 kts 101°
2026-04-22 19:56 41.02647 15.66439 25140 ft 423 kts 101°
2026-04-22 19:56 41.02012 15.70228 24792 ft 422 kts 101°
2026-04-22 19:57 41.01373 15.74035 24464 ft 420 kts 101°
2026-04-22 19:57 41.00740 15.77814 24142 ft 418 kts 102°
2026-04-22 19:57 41.00116 15.81530 23800 ft 417 kts 102°
2026-04-22 19:57 40.99483 15.85294 23394 ft 417 kts 101°
2026-04-22 19:58 40.98853 15.89036 23008 ft 415 kts 101°
2026-04-22 19:58 40.98230 15.92728 22642 ft 413 kts 101°
2026-04-22 19:58 40.97598 15.96466 22285 ft 411 kts 101°
2026-04-22 19:58 40.96982 16.00103 21930 ft 409 kts 101°
2026-04-22 19:59 40.96355 16.03796 21580 ft 407 kts 101°
2026-04-22 20:00 40.94618 16.25656 19488 ft 394 kts 86°
2026-04-22 20:00 40.94524 16.29267 19154 ft 393 kts 87°
2026-04-22 20:01 40.94413 16.32903 18794 ft 393 kts 87°
2026-04-22 20:01 40.94291 16.36515 18454 ft 392 kts 88°
2026-04-22 20:01 40.94164 16.40092 18070 ft 391 kts 88°
2026-04-22 20:01 40.94036 16.43696 17706 ft 388 kts 88°
2026-04-22 20:02 40.93908 16.47227 17354 ft 385 kts 88°
2026-04-22 20:02 40.93781 16.50756 17009 ft 382 kts 87°
2026-04-22 20:02 40.94017 16.54175 16640 ft 368 kts 67°
2026-04-22 20:02 40.94853 16.57325 16373 ft 359 kts 62°
2026-04-22 20:03 40.95754 16.60394 16020 ft 356 kts 62°
2026-04-22 20:03 40.96661 16.63452 15683 ft 353 kts 62°
2026-04-22 20:03 40.97548 16.66467 15357 ft 351 kts 63°
2026-04-22 20:03 40.98410 16.69439 15025 ft 348 kts 63°
2026-04-22 20:04 40.99271 16.72436 14673 ft 345 kts 63°
2026-04-22 20:04 41.00109 16.75373 14356 ft 343 kts 64°
2026-04-22 20:04 41.00947 16.78324 14024 ft 340 kts 64°
2026-04-22 20:04 41.01778 16.81255 13678 ft 337 kts 64°
2026-04-22 20:05 41.02599 16.84158 13312 ft 335 kts 64°
2026-04-22 20:05 41.03399 16.86989 13072 ft 329 kts 64°
2026-04-22 20:05 41.04196 16.89811 12751 ft 325 kts 64°
2026-04-22 20:05 41.04989 16.92626 12438 ft 322 kts 65°
2026-04-22 20:06 41.05760 16.95360 12197 ft 317 kts 65°
2026-04-22 20:06 41.06525 16.98081 11990 ft 310 kts 65°
2026-04-22 20:06 41.07272 17.00744 11843 ft 302 kts 65°
2026-04-22 20:06 41.07988 17.03297 11710 ft 294 kts 65°
2026-04-22 20:07 41.08697 17.05821 11468 ft 291 kts 64°
2026-04-22 20:07 41.09167 17.07486 11295 ft 289 kts 64°
2026-04-22 20:07 41.10096 17.10787 10925 ft 287 kts 65°
2026-04-22 20:07 41.10793 17.13266 10656 ft 285 kts 65°
2026-04-22 20:08 41.11253 17.14905 10461 ft 284 kts 65°
2026-04-22 20:08 41.11938 17.17367 10196 ft 282 kts 65°
2026-04-22 20:08 41.12607 17.19778 9927 ft 280 kts 65°
2026-04-22 20:08 41.13283 17.22217 9624 ft 279 kts 65°
2026-04-22 20:09 41.13947 17.24612 9342 ft 276 kts 65°
2026-04-22 20:09 41.14603 17.26977 9068 ft 274 kts 65°
2026-04-22 20:09 41.15262 17.29349 8801 ft 272 kts 65°
2026-04-22 20:09 41.16031 17.31611 8516 ft 264 kts 48°
2026-04-22 20:10 41.17373 17.33130 8289 ft 249 kts 20°
2026-04-22 20:10 41.19021 17.33687 7954 ft 242 kts 360°
2026-04-22 20:10 41.20653 17.33427 7670 ft 238 kts 342°
2026-04-22 20:10 41.22212 17.32719 7398 ft 236 kts 338°
2026-04-22 20:11 41.23746 17.31952 7126 ft 235 kts 338°
2026-04-22 20:11 41.25216 17.31080 6973 ft 228 kts 324°
2026-04-22 20:11 41.26246 17.29559 6861 ft 222 kts 301°
2026-04-22 20:11 41.26731 17.27626 6721 ft 220 kts 281°
2026-04-22 20:12 41.26644 17.25571 6489 ft 225 kts 259°
2026-04-22 20:12 41.26126 17.23599 6266 ft 225 kts 255°
2026-04-22 20:12 41.25588 17.21684 6025 ft 223 kts 255°
2026-04-22 20:12 41.25046 17.19757 5792 ft 221 kts 255°
2026-04-22 20:13 41.24506 17.17839 5558 ft 221 kts 255°
2026-04-22 20:13 41.23974 17.15934 5331 ft 222 kts 255°
2026-04-22 20:13 41.23437 17.14021 5123 ft 216 kts 255°
2026-04-22 20:13 41.22922 17.12185 4901 ft 210 kts 256°
2026-04-22 20:14 41.22421 17.10398 4659 ft 202 kts 255°
2026-04-22 20:14 41.21940 17.08685 4421 ft 196 kts 256°
2026-04-22 20:14 41.21486 17.07018 4215 ft 188 kts 259°
2026-04-22 20:14 41.21201 17.05352 4005 ft 180 kts 265°
2026-04-22 20:15 41.20963 17.03740 3817 ft 176 kts 265°
2026-04-22 20:15 41.20727 17.02148 3630 ft 174 kts 266°
2026-04-22 20:15 41.20494 17.00602 3455 ft 172 kts 266°
2026-04-22 20:15 41.20260 16.99048 3276 ft 170 kts 267°
2026-04-22 20:16 41.19941 16.97524 3099 ft 172 kts 257°
2026-04-22 20:16 41.19518 16.96043 2924 ft 173 kts 256°
2026-04-22 20:16 41.19085 16.94543 2725 ft 173 kts 256°
2026-04-22 20:16 41.18658 16.93053 2557 ft 171 kts 257°
2026-04-22 20:17 41.18241 16.91587 2362 ft 171 kts 256°
2026-04-22 20:17 41.17825 16.90120 2144 ft 167 kts 257°
2026-04-22 20:17 41.17415 16.88674 1915 ft 168 kts 256°
2026-04-22 20:17 41.17007 16.87231 1715 ft 169 kts 257°
2026-04-22 20:18 41.16598 16.85786 1469 ft 162 kts 257°
2026-04-22 20:18 41.16212 16.84428 1246 ft 154 kts 258°
2026-04-22 20:18 41.15844 16.83124 1076 ft 145 kts 255°
2026-04-22 20:18 41.15495 16.81890 843 ft 139 kts 255°
2026-04-22 20:19 41.15160 16.80700 693 ft 140 kts 255°
2026-04-22 20:19 41.14823 16.79447 504 ft 147 kts 255°
2026-04-22 20:19 41.14454 16.78197 295 ft 140 kts 257°
2026-04-22 20:19 41.14121 16.77002 128 ft 136 kts 253°
2026-04-22 20:20 41.13852 16.76053 154 ft 72 kts 249°
2026-04-22 20:20 41.13763 16.75765 162 ft 19 kts 230°
2026-04-22 20:20 41.13675 16.75681 165 ft 10 kts 215°
2026-04-22 20:20 41.13633 16.75646 165 ft 5 kts 202°
2026-04-22 20:21 41.13569 16.75713 164 ft 24 kts 87°
2026-04-22 20:21 41.13622 16.75906 160 ft 21 kts 69°
2026-04-22 20:21 41.13591 16.76074 154 ft 21 kts 140°
2026-04-22 20:21 41.13563 16.76201 152 ft 16 kts 67°
2026-04-22 20:22 41.13600 16.76336 147 ft 9 kts 72°
2026-04-22 20:22 41.13572 16.76385 147 ft 2 kts 155°
2026-04-22 20:22 41.13561 16.76390 147 ft 0 kts 160°
2026-04-22 20:22 41.13551 16.76395 147 ft 1 kts 160°